Find Starlink 33616

NORAD ID: 63385 Int'l Des: 2025-063 Owner: SPXS Country: US Constellation: starlink operational
LEOCIRCULAR

Live Position

Loading 3D Globe...

About Starlink 33616

Description loading...

Upcoming Passes

Passes for default location (London). Set your location on the main map for personalized predictions.

Altitude History

Loading altitude history...

Two-Line Element Set

1 63385U 25063Y 26105.81533289 .00014755 00000-0 50914-3 0 9998
2 63385 53.1587 250.6657 0000765 83.3967 276.7121 15.30210946 60240
Epoch: Apr 15, 2026 • Age: 20 hours

Current Status

Altitude 480.5 km
Velocity 7.63 km/s
Sub-Earth Point -18.72°S, 7.75°E
Launch Date Mar 26, 2025
Age 1 years
Type internet

Technical Details

Classification Payload
Mass 575.00 kg
Dry Mass 530.00 kg
Total Mass 575.00 kg
Length 0.30 m
Diameter 4.10 m
Span 29.00 m
Shape Box + pan
Manufacturer SPXS
Bus Type Starlink V2MO
Phase Status In Orbit
Owner/State SPXS/US

Most Searched